User: anonymous   Login
Location: Vancouver
(49.2500°N, 123.1330°W)
Time: 14:47:20
(UTC-07:00)
Language:

Iridium 21 - Orbit

View from above orbital plane
View from above orbital plane
View from above satellite
View from above satellite

Ground track
Ground track

The orbit data is extracted from the following two-line orbital elements,

1 25778U 99032B   15209.40990492  .00000192  00000-0  61325-4 0  9999
2 25778 086.4005 152.3200 0002251 087.2979 031.0903 14.34219806849240
Epoch (UTC): 28 July 2015 09:50:15
Eccentricity: 0.0002251
inclination: 86.4005°
perigee height: 776 km
apogee height: 779 km
right ascension of ascending node: 152.3200°
argument of perigee: 87.2979°
revolutions per day: 14.34219806
mean anomaly at epoch: 31.0903°
orbit number at epoch: 84924

The dashed part of the orbit path shows where the satellite is in the earth's shadow,  

DLR